Location: ??
(34.7707°N, 135.6540°E)
Time: 05:39:45
(UTC+00:00)

GP-B - Pass Details

Date: 09 April 2020
Orbit: 632 x 635 km, 89.8° (Epoch: 05 June)

Event Time Altitude Azimuth Distance (km) Brightness Sun altitude
Rises 19:53:54 0° 9° (N) 2,937 6.9 -8.5°
Reaches altitude 10° 19:56:12 10° 15° (NNE) 2,025 6.1 -8.1°
Maximum altitude 20:00:29 46° 89° (E) 848 4.4 -7.2°
Drops below altitude 10° 20:04:45 10° 164° (SSE) 2,010 5.7 -6.4°
Sets 20:07:01 0° 170° (S) 2,914 6.5 -5.9°
